[[{"header":{"parameterUnit":"m.s-1","parameterCategory":1,"la1":30.2991,"la2":30.254,"lo1":-89.0895,"lo2":-89.0444,"dy":0.0017,"dx":0.0017,"nx":28,"ny":28,"refTime":"2023-07-30T09:00:00:Z","depth":0,"parameterNumber":2,"parameterNumberName":"U-component_of_WINDS"},"data":[0,0,0,0,0,0,0,0,0,0,0,0,0,0,0,0,0,0,0,0,0,0,0,0,0,0,0,0,0,0,0,0,0,0,0,0,0,0,0,0,0,0,0,0,0,0,0,0,0,0,0,0,0,0,0,0,0,0,1.343,1.3431,0,1.3512,1.3513,1.3514,1.3466,1.3464,1.3462,1.346,1.3547,1.3552,1.3556,0,0,0,0,0,0,0,0,0,0,0,0,0,1.3236,1.324,1.343,1.3431,1.3432,1.3512,1.3513,1.3514,1.3467,1.3464,1.3461,1.3459,1.3546,1.3551,1.3557,0,0,0,0,0,0,0,0,0,0,0,0,0,1.3319,1.3241,1.343,1.3418,1.3418,1.3512,1.3513,1.3514,1.3467,1.3464,1.3461,1.3457,1.3544,1.3551,1.3557,1.3668,0,0,1.3578,1.3581,0,0,0,0,0,0,0,0,1.3315,1.3326,1.3419,1.3419,1.3419,1.3475,1.3476,1.3566,1.3468,1.3449,1.346,1.3456,1.3526,1.3534,1.3558,1.3673,1.3676,1.3578,1.3583,1.3585,1.3587,0,0,0,0,0,0,0,1.3309,1.3323,1.3463,1.342,1.3421,1.341,1.3418,1.3493,1.3506,1.345,1.3447,1.3457,1.3526,1.3551,1.3559,1.3678,1.3578,1.3584,1.3588,1.3591,1.3887,1.389,0,0,0,0,0,0,1.3303,1.3318,1.346,1.3465,1.3357,1.3416,1.3425,1.3461,1.3505,1.3509,1.346,1.3455,1.3541,1.3551,1.3562,1.3695,1.3585,1.3592,1.3596,1.3883,1.3888,1.3892,0,0,0,0,0,0,1.3299,1.3317,1.3457,1.3391,1.3408,1.3423,1.3464,1.3464,1.349,1.3513,1.3515,1.3483,1.3539,1.3553,1.3642,1.3697,1.3595,1.3601,1.3879,1.3884,1.389,1.3961,0,0,0,0,0,0,1.3294,1.3315,1.3357,1.3392,1.3411,1.3535,1.3467,1.3468,1.3501,1.3495,1.3535,1.3539,1.3537,1.3632,1.3649,1.3704,1.3606,1.3874,1.3881,1.3888,1.3954,1.3968,1.3981,0,0,0,0,0,1.3287,1.3375,1.336,1.3377,1.3464,1.3538,1.3549,1.3545,1.3505,1.3548,1.3563,1.3537,1.3688,1.3642,1.366,1.3719,1.387,1.3879,1.3887,1.3948,1.3966,1.3981,0,0,0,0,0,0,1.3349,1.338,1.3363,1.3465,1.3499,1.353,1.3584,1.3564,1.3611,1.3604,1.3597,1.3607,1.37,1.3718,1.3666,1.3828,1.3773,1.3786,1.3813,1.383,1.3843,1.3837,1.3612,0,0,0,0,0,1.3374,1.343,1.3455,1.3542,1.356,1.3569,1.3601,1.3594,1.363,1.3645,1.3666,1.3702,1.3758,1.3795,1.3847,1.3956,1.3964,1.4005,1.4019,1.403,1.4041,1.4099,1.4118,1.392,1.392,1.392,0,0,1.3427,1.3451,1.3487,1.3555,1.3581,1.364,1.3581,1.3647,1.3691,1.3655,1.374,1.3757,1.3797,1.3896,1.3941,1.3914,1.4097,1.4041,1.4049,1.4055,1.411,1.4129,1.4145,1.3926,1.3925,1.3924,0,0,1.3554,1.3578,1.3652,1.3679,1.3718,1.3723,1.3741,1.3774,1.3783,1.3868,1.3842,1.3895,1.3991,1.402,1.4048,1.4184,1.4162,1.4201,1.4272,1.4329,1.4345,1.4358,1.4407,1.4424,1.4212,1.4212,1.4212,0,1.3615,1.3703,1.3694,1.3761,1.3791,1.3759,1.3835,1.3862,1.3917,1.3939,1.3907,1.4026,1.4051,1.4156,1.4189,1.4213,1.4233,1.4197,1.4343,1.4357,1.4369,1.4416,1.4434,1.4217,1.4216,1.4216,1.4215,0,1.3776,1.3837,1.3893,1.3944,1.3981,1.4052,1.4055,1.4093,1.4083,1.4091,1.4178,1.4206,1.4263,1.4288,1.4279,1.4392,1.4374,1.4343,1.4288,1.4393,1.4436,1.4454,1.4223,1.4221,1.422,1.4219,0,0,1.3946,1.399,1.4011,1.4033,1.4073,1.412,1.419,1.4244,1.4277,1.4315,1.4374,1.4454,1.4425,1.4457,1.4451,1.4501,1.4606,1.4464,1.4464,1.4489,1.4732,1.4755,1.4775,1.4591,1.4595,1.4597,1.4728,0,1.4075,1.4195,1.4189,1.4302,1.4358,1.4327,1.4388,1.4419,1.4428,1.4478,1.4488,1.4545,1.4503,1.4521,1.4569,1.4583,1.4655,1.4574,1.4647,1.4649,1.4638,1.4798,1.4823,1.4945,1.4745,1.4748,1.475,0,1.4243,1.4285,1.4403,1.4433,1.4456,1.451,1.4559,1.4606,1.4641,1.4644,1.4678,1.4663,1.4734,1.4676,1.4774,1.4719,1.4748,1.4759,1.4764,1.4771,1.4707,1.481,1.4984,1.5003,1.4776,1.4774,1.4772,0,1.4355,1.4441,1.4522,1.4543,1.458,1.4618,1.4636,1.4667,1.4699,1.4742,1.4763,1.4814,1.4842,1.4882,1.4882,1.484,1.4981,1.4923,1.4986,1.4986,1.5018,1.5016,1.52,1.5036,1.5036,1.5035,1.5035,0,1.45,1.4574,1.4573,1.4623,1.4705,1.4696,1.4777,1.479,1.4818,1.4871,1.4848,1.4898,1.4894,1.4945,1.4946,1.5026,1.5039,1.5044,1.5044,1.5047,1.5046,1.5067,1.5059,1.504,1.5039,1.5038,1.5037,0,1.464,1.4642,1.4729,1.4756,1.4764,1.4823,1.4846,1.4894,1.49,1.4967,1.4983,1.4993,1.5052,1.5055,1.5124,1.5124,1.5222,1.5212,1.521,1.5208,1.5271,1.5265,1.5475,1.5502,1.532,1.5322,1.5323,0,1.4733,1.4788,1.482,1.4853,1.4872,1.4926,1.4958,1.4952,1.4987,1.5029,1.5072,1.5128,1.5172,1.5267,1.5282,1.5334,1.5325,1.5395,1.5333,1.5334,1.5326,1.5323,1.5329,1.5407,1.5409,1.5411,1.5412,0,1.4898,1.4896,1.4942,1.499,1.5028,1.5066,1.51,1.5129,1.5126,1.5166,1.5225,1.5259,1.5328,1.5384,1.5434,1.5452,1.5433,1.5431,1.5449,1.5453,1.5449,1.5452,1.5243,1.5427,1.5425,1.5424,1.5424,1.5423,1.5017,1.5065,1.5094,1.5147,1.5171,1.5204,1.525,1.5261,1.5309,1.5363,1.5356,1.5421,1.5454,1.5518,1.5541,1.5592,1.5569,1.5594,1.5601,1.5607,1.5614,1.544,1.5602,1.5601,1.5601,1.56,1.56,0,1.5181,1.5198,1.5246,1.5294,1.5335,1.531,1.5347,1.5384,1.5441,1.5472,1.5515,1.5582,1.5636,1.5654,1.5706,1.5744,1.5736,1.5758,1.5755,1.576,1.5632,1.5612,1.5763,1.5763,1.5763,1.5763,1.5763,1.5763,1.5271,1.535,1.5351,1.5441,1.5458,1.552,1.5543,1.5573,1.5597,1.5673,1.5716,1.5727,1.5753,1.5806,1.5854,1.5858,1.5879,1.5905,1.5905,1.5785,1.5769,1.5753,1.5734,1.5909,1.591,1.6029,1.603,1.6031]},{"header":{"parameterUnit":"m.s-1","parameterCategory":1,"la1":30.2991,"la2":30.254,"lo1":-89.0895,"lo2":-89.0444,"dy":0.0017,"dx":0.0017,"nx":28,"ny":28,"refTime":"2023-07-30T09:00:00:Z","depth":0,"parameterNumber":3,"parameterNumberName":"V-component_of_WINDS"},"data":[0,0,0,0,0,0,0,0,0,0,0,0,0,0,0,0,0,0,0,0,0,0,0,0,0,0,0,0,0,0,0,0,0,0,0,0,0,0,0,0,0,0,0,0,0,0,0,0,0,0,0,0,0,0,0,0,0,0,-0.9414,-0.9414,0,-0.9413,-0.9413,-0.9413,-0.9433,-0.9433,-0.9434,-0.9435,-0.9432,-0.9431,-0.9431,0,0,0,0,0,0,0,0,0,0,0,0,0,-0.9432,-0.9431,-0.9414,-0.9414,-0.9414,-0.9413,-0.9413,-0.9413,-0.9433,-0.9433,-0.9434,-0.9435,-0.9432,-0.9431,-0.9431,0,0,0,0,0,0,0,0,0,0,0,0,0,-0.9427,-0.9431,-0.9414,-0.9424,-0.9425,-0.9413,-0.9413,-0.9413,-0.9433,-0.9434,-0.9434,-0.9435,-0.9432,-0.9432,-0.9431,-0.9409,0,0,-0.9428,-0.9428,0,0,0,0,0,0,0,0,-0.9427,-0.9426,-0.9422,-0.9423,-0.9424,-0.9424,-0.9418,-0.9412,-0.9432,-0.943,-0.9435,-0.9435,-0.9429,-0.9428,-0.9426,-0.9409,-0.9409,-0.9428,-0.9427,-0.9427,-0.9427,0,0,0,0,0,0,0,-0.9427,-0.9426,-0.9414,-0.9422,-0.9423,-0.9428,-0.9428,-0.9417,-0.9424,-0.943,-0.9431,-0.9431,-0.9429,-0.9427,-0.9426,-0.9409,-0.9428,-0.9427,-0.9427,-0.9426,-0.9375,-0.9374,0,0,0,0,0,0,-0.9426,-0.9426,-0.9414,-0.9414,-0.9428,-0.9427,-0.9427,-0.9423,-0.9425,-0.9426,-0.943,-0.9432,-0.9428,-0.9427,-0.9426,-0.9401,-0.9427,-0.9426,-0.9426,-0.9376,-0.9375,-0.9374,0,0,0,0,0,0,-0.9427,-0.9425,-0.9414,-0.942,-0.9419,-0.9426,-0.9421,-0.9423,-0.942,-0.9425,-0.9426,-0.9427,-0.9428,-0.9427,-0.9414,-0.9401,-0.9426,-0.9425,-0.9377,-0.9375,-0.9374,-0.9351,0,0,0,0,0,0,-0.9427,-0.9425,-0.9417,-0.942,-0.9419,-0.9401,-0.942,-0.9422,-0.9419,-0.9421,-0.9422,-0.9423,-0.9429,-0.9415,-0.9413,-0.9401,-0.9424,-0.9378,-0.9376,-0.9375,-0.9353,-0.9349,-0.9346,0,0,0,0,0,-0.9428,-0.941,-0.9417,-0.9415,-0.9409,-0.94,-0.94,-0.9408,-0.9418,-0.941,-0.9413,-0.9423,-0.9403,-0.9413,-0.9411,-0.9398,-0.9379,-0.9377,-0.9375,-0.9354,-0.935,-0.9346,0,0,0,0,0,0,-0.9405,-0.9411,-0.9418,-0.9401,-0.94,-0.9404,-0.9394,-0.9402,-0.9398,-0.94,-0.941,-0.941,-0.9394,-0.9395,-0.9406,-0.9378,-0.9393,-0.939,-0.9378,-0.9374,-0.937,-0.937,-0.9424,0,0,0,0,0,-0.9398,-0.9391,-0.9396,-0.938,-0.938,-0.9387,-0.9383,-0.939,-0.9389,-0.9389,-0.9391,-0.9389,-0.9383,-0.9379,-0.9373,-0.9353,-0.9354,-0.9344,-0.934,-0.9337,-0.9335,-0.9325,-0.932,-0.9367,-0.9367,-0.9367,0,0,-0.9383,-0.9385,-0.938,-0.9376,-0.9376,-0.9368,-0.9386,-0.9377,-0.9371,-0.9387,-0.9374,-0.9376,-0.9375,-0.9358,-0.9351,-0.9358,-0.9322,-0.9335,-0.9333,-0.9332,-0.9322,-0.9318,-0.9314,-0.9366,-0.9366,-0.9367,0,0,-0.9352,-0.9353,-0.934,-0.9341,-0.9341,-0.9346,-0.9343,-0.9346,-0.9348,-0.9335,-0.9347,-0.934,-0.9329,-0.9328,-0.9326,-0.9296,-0.9305,-0.9294,-0.9275,-0.9265,-0.9261,-0.9258,-0.9247,-0.9243,-0.9292,-0.9292,-0.9292,0,-0.9333,-0.9322,-0.9332,-0.9323,-0.932,-0.9336,-0.9323,-0.9322,-0.932,-0.9318,-0.9327,-0.9314,-0.9314,-0.9298,-0.929,-0.9289,-0.9285,-0.9293,-0.9261,-0.9258,-0.9255,-0.9245,-0.9241,-0.929,-0.929,-0.9291,-0.9291,0,-0.9299,-0.9291,-0.9281,-0.928,-0.9277,-0.9265,-0.9274,-0.9269,-0.9276,-0.928,-0.9267,-0.9269,-0.9264,-0.9261,-0.9267,-0.9245,-0.925,-0.926,-0.9274,-0.9249,-0.9239,-0.9236,-0.9288,-0.9289,-0.9289,-0.929,0,0,-0.9252,-0.9258,-0.9254,-0.9253,-0.9256,-0.925,-0.9239,-0.9235,-0.9231,-0.923,-0.9221,-0.9212,-0.9221,-0.9219,-0.9226,-0.9217,-0.9193,-0.9228,-0.9228,-0.9221,-0.9169,-0.916,-0.9156,-0.92,-0.9199,-0.9198,-0.9169,0,-0.9221,-0.9204,-0.9214,-0.9195,-0.9188,-0.9203,-0.9194,-0.9194,-0.9198,-0.9192,-0.9196,-0.919,-0.9203,-0.9202,-0.9194,-0.9198,-0.9183,-0.92,-0.9191,-0.919,-0.9189,-0.9151,-0.9142,-0.9114,-0.9165,-0.9164,-0.9164,0,-0.9183,-0.9181,-0.9162,-0.9166,-0.9163,-0.9155,-0.9152,-0.9147,-0.9148,-0.9151,-0.9149,-0.9159,-0.9148,-0.9164,-0.915,-0.9162,-0.9159,-0.916,-0.9159,-0.9158,-0.9175,-0.9147,-0.9105,-0.91,-0.9158,-0.9158,-0.9159,0,-0.915,-0.9142,-0.913,-0.913,-0.9134,-0.9128,-0.913,-0.9131,-0.9129,-0.9126,-0.9125,-0.9121,-0.9119,-0.9116,-0.9123,-0.9134,-0.9108,-0.9125,-0.911,-0.911,-0.9103,-0.9103,-0.9059,-0.9103,-0.9103,-0.9103,-0.9103,0,-0.9114,-0.9102,-0.9115,-0.9107,-0.9094,-0.9105,-0.9092,-0.9095,-0.9096,-0.9089,-0.9102,-0.9095,-0.9107,-0.9101,-0.9107,-0.9094,-0.9093,-0.9095,-0.9097,-0.9094,-0.9093,-0.9091,-0.9093,-0.9102,-0.9102,-0.9102,-0.9102,0,-0.9074,-0.9083,-0.907,-0.9077,-0.9078,-0.9068,-0.9073,-0.9065,-0.9071,-0.9062,-0.906,-0.9069,-0.9062,-0.907,-0.9065,-0.9069,-0.9052,-0.9056,-0.9051,-0.9052,-0.9037,-0.9038,-0.8989,-0.8983,-0.9032,-0.9031,-0.9031,0,-0.905,-0.9041,-0.9047,-0.9043,-0.9045,-0.9039,-0.9036,-0.9048,-0.9044,-0.9045,-0.9038,-0.9033,-0.903,-0.9019,-0.9024,-0.902,-0.9025,-0.9008,-0.9024,-0.9021,-0.9024,-0.9024,-0.9023,-0.9004,-0.9003,-0.9003,-0.9002,0,-0.9007,-0.9012,-0.9009,-0.9006,-0.9003,-0.9002,-0.9002,-0.8998,-0.901,-0.9006,-0.9,-0.8997,-0.8992,-0.8987,-0.8985,-0.8986,-0.8996,-0.8998,-0.8994,-0.899,-0.8987,-0.8988,-0.9041,-0.8998,-0.8999,-0.8999,-0.8999,-0.8999,-0.8974,-0.8967,-0.897,-0.8965,-0.8967,-0.8966,-0.896,-0.8965,-0.8961,-0.8958,-0.8965,-0.8957,-0.8959,-0.8957,-0.8957,-0.8952,-0.8959,-0.8954,-0.8952,-0.895,-0.8948,-0.8989,-0.8951,-0.8951,-0.8951,-0.8952,-0.8952,0,-0.8931,-0.8934,-0.893,-0.893,-0.8926,-0.8937,-0.8937,-0.8934,-0.8927,-0.8928,-0.8925,-0.8919,-0.8914,-0.8919,-0.8916,-0.891,-0.8914,-0.8909,-0.8909,-0.8909,-0.8942,-0.8945,-0.8905,-0.8905,-0.8905,-0.8905,-0.8905,-0.8905,-0.8908,-0.8896,-0.8902,-0.8891,-0.8894,-0.8887,-0.8887,-0.8886,-0.8887,-0.888,-0.8876,-0.888,-0.8883,-0.888,-0.8876,-0.8878,-0.8876,-0.8868,-0.8871,-0.8902,-0.8906,-0.8911,-0.8914,-0.8868,-0.8867,-0.8838,-0.8838,-0.8838]}]]